Regional Weather Roundup
Issued by NWS

Home | Current Version | Previous Version | Text Only | Print | Product List | Glossary On
Versions: 1 2 3 4 5 6 7 8 9 10 11 12 13 14 15 16 17 18 19 20 21 22 23 24 25 26 27 28 29 30 31 32 33 34 35 36 37 38 39 40 41 42 43 44 45 46 47 48 49 50
000
ASUS44 KLIX 030512
RWRLA
LOUISIANA WEATHER ROUNDUP
NATIONAL WEATHER SERVICE NEW ORLEANS LA
1200 AM CDT WED JUN 03 2015

NOTE: "FAIR" INDICATES FEW OR NO CLOUDS BELOW 12,000 FEET WITH NO
      SIGNIFICANT WEATHER AND/OR OBSTRUCTIONS TO VISIBILITY.
      SKY/WX - SKY CONDITION AND SIGNIFICANT WEATHER.
      TMP - AIR TEMPERATURE.    DP   - DEWPOINT TEMPERATURE.
      RH  - RELATIVE HUMIDITY.  PRES - PRESSURE.
      HX  - HEAT INDEX.         WCI  - WIND CHILL INDEX.

*  THESE STATIONS ARE NOT NWS OR FAA STATIONS AND ARE NOT UNDER
   NWS QUALITY CONTROL.

LAZ040-048-061>063-065-066-069-030600-
SOUTHEAST LOUISIANA

CITY           SKY/WX    TMP DP  RH WIND       PRES   REMARKS
N.O. AUDUBON     N/A     79  70  73 MISG        N/A
N.O. INTL ARPT PTCLDY    80  70  71 E7        29.93S
N.O. LAKEFRONT MOCLDY    82  71  69 E7        29.93F
SLIDELL        CLEAR     74  68  81 CALM      29.94S
BATON ROUGE    CLEAR     73  66  78 NE5       29.95F
BOOTHVILLE     CLEAR     79  74  84 SE3       29.94S
BELLE CHASSE   CLEAR     70  68  93 NE3       29.93S
BOGALUSA*        N/A     72  67  83 CALM      29.97S
GALLIANO*      CLOUDY    76  69  77 S5        29.94S
NEW ROADS*     FAIR     N/A N/A N/A NE5       29.96S
GONZALES*      FAIR      71  70  96 N5        29.93F
HAMMOND*       CLEAR     72  64  78 N3        29.97S
HOUMA*         CLOUDY    74  70  85 CALM      29.93F
PORT FOURCHON* NOT AVBL

$$

LAZ041-044-053-054-030600-
SOUTHWEST LOUISIANA

CITY           SKY/WX    TMP DP  RH WIND       PRES   REMARKS
LAKE CHARLES   PTCLDY    72  67  84 NE3       29.95R
LAFAYETTE      CLEAR     73  66  78 NE3       29.95S
PATTERSON      CLEAR     75  66  73 N3        29.96R
SALT POINT       N/A     76  68  76 CALM      29.93S
NEW IBERIA     CLEAR     76  67  73 NE7       29.95S
CHENAULT AIRPK CLEAR     73  68  86 CALM      29.96S

$$

LAZ027-028-030600-
CENTRAL LOUISIANA

CITY           SKY/WX    TMP DP  RH WIND       PRES   REMARKS
FORT POLK      MOCLDY    74  64  73 E5        29.96S
ALEXANDRIA INT CLEAR     71  65  81 NE5       29.95F
ALEXANDRIA     CLEAR     65  64  97 CALM      29.97S

$$

LAZ001-002-030600-
NORTHWEST LOUISIANA

CITY           SKY/WX    TMP DP  RH WIND       PRES   REMARKS
SHREVEPORT     CLEAR     72  64  76 CALM      29.97S
BARKSDALE AFB  CLEAR     71  64  78 CALM      29.97S
DTN SHREVEPORT CLEAR     72  63  73 E3        29.98S

$$

LAZ014-016-030600-
NORTHEAST LOUISIANA

CITY           SKY/WX    TMP DP  RH WIND       PRES   REMARKS
MONROE         CLEAR     67  65  93 NE6       29.99S
TALLULAH       CLEAR     67  64  90 CALM      29.98S

$$




USA.gov is the U.S. government's official web portal to all federal, state and local government web resources and services.